Time,TemperatureF,DewpointF,PressureIn,WindDirection,WindDirectionDegrees,WindSpeedMPH,WindSpeedGustMPH,Humidity,HourlyPrecipIn,Conditions,Clouds,dailyrainin,SoftwareType,DateUTC
2013-01-24 00:00:00,20.6,15.4,29.91,WSW,245,2.0,2.0,80,0.00,CLR,CLR,0.00,WeatherDisplay:10.34,2013-01-24 07:00:00,
2013-01-24 00:06:00,20.5,15.3,29.91,WSW,245,3.0,3.0,80,0.00,CLR,CLR,0.00,WeatherDisplay:10.34,2013-01-24 07:06:00,
2013-01-24 00:11:00,20.4,15.5,29.91,WSW,245,3.0,3.0,81,0.00,CLR,CLR,0.00,WeatherDisplay:10.34,2013-01-24 07:11:00,
2013-01-24 00:16:00,20.4,15.5,29.91,WSW,245,0.0,0.0,81,0.00,CLR,CLR,0.00,WeatherDisplay:10.34,2013-01-24 07:16:00,
2013-01-24 00:21:00,20.3,15.4,29.91,WSW,245,0.0,1.0,81,0.00,CLR,CLR,0.00,WeatherDisplay:10.34,2013-01-24 07:21:00,
2013-01-24 00:26:00,20.1,14.9,29.91,WSW,245,0.0,0.0,80,0.00,CLR,CLR,0.00,WeatherDisplay:10.34,2013-01-24 07:26:00,
2013-01-24 00:31:00,19.7,14.2,29.90,WSW,245,0.0,0.0,79,0.00,CLR,CLR,0.00,WeatherDisplay:10.34,2013-01-24 07:31:00,
2013-01-24 00:36:00,19.7,14.0,29.90,WSW,245,0.0,0.0,78,0.00,CLR,CLR,0.00,WeatherDisplay:10.34,2013-01-24 07:36:00,
2013-01-24 00:41:00,19.4,13.7,29.90,WSW,245,0.0,0.0,78,0.00,CLR,CLR,0.00,WeatherDisplay:10.34,2013-01-24 07:41:00,
2013-01-24 00:46:00,19.1,13.4,29.90,WSW,245,0.0,0.0,78,0.00,CLR,CLR,0.00,WeatherDisplay:10.34,2013-01-24 07:46:00,
2013-01-24 00:51:00,18.9,13.2,29.89,WSW,245,0.0,0.0,78,0.00,CLR,CLR,0.00,WeatherDisplay:10.34,2013-01-24 07:51:00,
2013-01-24 00:56:00,18.7,13.0,29.89,WSW,245,0.0,0.0,78,0.00,CLR,CLR,0.00,WeatherDisplay:10.34,2013-01-24 07:56:00,
2013-01-24 01:01:00,18.3,12.6,29.89,WSW,245,0.0,1.0,78,0.00,CLR,CLR,0.00,WeatherDisplay:10.34,2013-01-24 08:01:00,
2013-01-24 01:07:00,18.1,12.4,29.90,WSW,245,0.0,0.0,78,0.00,CLR,CLR,0.00,WeatherDisplay:10.34,2013-01-24 08:07:00,
2013-01-24 01:12:00,18.0,12.6,29.89,WSW,245,1.0,1.0,79,0.00,CLR,CLR,0.00,WeatherDisplay:10.34,2013-01-24 08:12:00,
2013-01-24 01:17:00,18.0,12.9,29.89,WSW,245,0.0,0.0,80,0.00,CLR,CLR,0.00,WeatherDisplay:10.34,2013-01-24 08:17:00,
2013-01-24 01:22:00,18.0,12.9,29.90,WSW,245,0.0,0.0,80,0.00,CLR,CLR,0.00,WeatherDisplay:10.34,2013-01-24 08:22:00,
2013-01-24 01:27:00,17.9,12.8,29.90,WSW,245,0.0,0.0,80,0.00,CLR,CLR,0.00,WeatherDisplay:10.34,2013-01-24 08:27:00,
2013-01-24 01:32:00,17.8,12.7,29.90,WSW,245,0.0,0.0,80,0.00,CLR,CLR,0.00,WeatherDisplay:10.34,2013-01-24 08:32:00,
2013-01-24 01:37:00,17.8,12.7,29.90,WSW,245,0.0,0.0,80,0.00,CLR,CLR,0.00,WeatherDisplay:10.34,2013-01-24 08:37:00,
2013-01-24 01:42:00,17.8,12.7,29.89,WSW,245,0.0,0.0,80,0.00,CLR,CLR,0.00,WeatherDisplay:10.34,2013-01-24 08:42:00,
2013-01-24 01:47:00,17.7,12.9,29.89,WSW,245,0.0,0.0,81,0.00,CLR,CLR,0.00,WeatherDisplay:10.34,2013-01-24 08:47:00,
2013-01-24 01:52:00,17.7,12.9,29.90,WSW,245,0.0,0.0,81,0.00,CLR,CLR,0.00,WeatherDisplay:10.34,2013-01-24 08:52:00,
2013-01-24 01:57:00,17.6,12.5,29.90,WSW,245,0.0,0.0,80,0.00,CLR,CLR,0.00,WeatherDisplay:10.34,2013-01-24 08:57:00,
2013-01-24 02:02:00,17.6,12.5,29.90,WSW,245,0.0,0.0,80,0.00,CLR,CLR,0.00,WeatherDisplay:10.34,2013-01-24 09:02:00,
2013-01-24 02:07:00,17.4,12.3,29.90,WSW,245,0.0,0.0,80,0.00,CLR,CLR,0.00,WeatherDisplay:10.34,2013-01-24 09:07:00,
2013-01-24 02:12:00,17.5,12.4,29.90,WSW,245,0.0,0.0,80,0.00,CLR,CLR,0.00,WeatherDisplay:10.34,2013-01-24 09:12:00,
2013-01-24 02:17:00,17.6,12.8,29.90,WSW,245,1.0,1.0,81,0.00,CLR,CLR,0.00,WeatherDisplay:10.34,2013-01-24 09:17:00,
2013-01-24 02:22:00,17.6,12.8,29.89,WSW,245,0.0,0.0,81,0.00,CLR,CLR,0.00,WeatherDisplay:10.34,2013-01-24 09:22:00,
2013-01-24 02:27:00,17.5,12.7,29.89,WSW,245,1.0,1.0,81,0.00,CLR,CLR,0.00,WeatherDisplay:10.34,2013-01-24 09:27:00,
2013-01-24 02:32:00,17.5,12.7,29.89,WSW,245,0.0,0.0,81,0.00,CLR,CLR,0.00,WeatherDisplay:10.34,2013-01-24 09:32:00,
2013-01-24 02:37:00,17.4,12.3,29.89,WSW,245,2.0,2.0,80,0.00,CLR,CLR,0.00,WeatherDisplay:10.34,2013-01-24 09:37:00,
2013-01-24 02:42:00,17.4,12.6,29.89,WSW,245,0.0,1.0,81,0.00,CLR,CLR,0.00,WeatherDisplay:10.34,2013-01-24 09:42:00,
2013-01-24 02:47:00,17.3,12.5,29.89,WSW,245,3.0,3.0,81,0.00,CLR,CLR,0.00,WeatherDisplay:10.34,2013-01-24 09:47:00,
2013-01-24 02:52:00,17.4,12.6,29.89,WSW,245,0.0,1.0,81,0.00,CLR,CLR,0.00,WeatherDisplay:10.34,2013-01-24 09:52:00,
2013-01-24 02:57:00,17.3,12.5,29.89,WSW,245,0.0,1.0,81,0.00,CLR,CLR,0.00,WeatherDisplay:10.34,2013-01-24 09:57:00,
2013-01-24 03:02:00,17.2,12.1,29.88,WSW,245,0.0,0.0,80,0.00,CLR,CLR,0.00,WeatherDisplay:10.34,2013-01-24 10:02:00,
2013-01-24 03:07:00,17.1,12.0,29.88,WSW,245,1.0,1.0,80,0.00,CLR,CLR,0.00,WeatherDisplay:10.34,2013-01-24 10:07:00,
2013-01-24 03:12:00,17.0,11.9,29.87,WSW,245,0.0,0.0,80,0.00,CLR,CLR,0.00,WeatherDisplay:10.34,2013-01-24 10:12:00,
2013-01-24 03:17:00,16.8,11.4,29.87,WSW,245,0.0,0.0,79,0.00,CLR,CLR,0.00,WeatherDisplay:10.34,2013-01-24 10:17:00,
2013-01-24 03:22:00,16.7,11.6,29.87,WSW,245,2.0,2.0,80,0.00,CLR,CLR,0.00,WeatherDisplay:10.34,2013-01-24 10:22:00,
2013-01-24 03:27:00,16.6,11.5,29.86,WSW,245,0.0,0.0,80,0.00,CLR,CLR,0.00,WeatherDisplay:10.34,2013-01-24 10:27:00,
2013-01-24 03:32:00,16.5,11.4,29.86,WSW,245,0.0,0.0,80,0.00,CLR,CLR,0.00,WeatherDisplay:10.34,2013-01-24 10:32:00,
2013-01-24 03:37:00,16.3,11.2,29.86,WSW,245,0.0,0.0,80,0.00,CLR,CLR,0.00,WeatherDisplay:10.34,2013-01-24 10:37:00,
2013-01-24 03:42:00,15.9,10.5,29.87,SE,140,2.0,2.0,79,0.00,CLR,CLR,0.00,WeatherDisplay:10.34,2013-01-24 10:42:00,
2013-01-24 03:47:00,15.8,10.4,29.87,SE,140,1.0,2.0,79,0.00,CLR,CLR,0.00,WeatherDisplay:10.34,2013-01-24 10:47:00,
2013-01-24 03:52:00,15.5,10.1,29.86,North,360,1.0,2.0,79,0.00,CLR,CLR,0.00,WeatherDisplay:10.34,2013-01-24 10:52:00,
2013-01-24 03:57:00,15.3,10.2,29.86,WSW,237,1.0,3.0,80,0.00,CLR,CLR,0.00,WeatherDisplay:10.34,2013-01-24 10:57:00,
2013-01-24 04:02:00,15.3,10.2,29.85,WSW,237,0.0,1.0,80,0.00,CLR,CLR,0.00,WeatherDisplay:10.34,2013-01-24 11:02:00,
2013-01-24 04:07:00,15.4,10.3,29.86,WSW,237,0.0,0.0,80,0.00,CLR,CLR,0.00,WeatherDisplay:10.34,2013-01-24 11:07:00,
2013-01-24 04:12:00,16.2,11.4,29.86,SE,146,0.0,0.0,81,0.00,CLR,CLR,0.00,WeatherDisplay:10.34,2013-01-24 11:12:00,
2013-01-24 04:17:00,16.2,11.4,29.86,NW,317,1.0,1.0,81,0.00,CLR,CLR,0.00,WeatherDisplay:10.34,2013-01-24 11:17:00,
2013-01-24 04:22:00,16.7,12.2,29.85,NW,322,1.0,1.0,82,0.00,CLR,CLR,0.00,WeatherDisplay:10.34,2013-01-24 11:22:00,
2013-01-24 04:27:00,16.6,11.5,29.85,SE,145,3.0,3.0,80,0.00,CLR,CLR,0.00,WeatherDisplay:10.34,2013-01-24 11:27:00,
2013-01-24 04:32:00,16.2,11.1,29.86,SE,142,0.0,1.0,80,0.00,CLR,CLR,0.00,WeatherDisplay:10.34,2013-01-24 11:32:00,
2013-01-24 04:37:00,16.2,11.4,29.86,NNE,26,3.0,3.0,81,0.00,CLR,CLR,0.00,WeatherDisplay:10.34,2013-01-24 11:37:00,
2013-01-24 04:42:00,16.1,11.0,29.85,NE,55,1.0,1.0,80,0.00,CLR,CLR,0.00,WeatherDisplay:10.34,2013-01-24 11:42:00,
2013-01-24 04:47:00,16.0,11.2,29.85,WSW,256,3.0,3.0,81,0.00,CLR,CLR,0.00,WeatherDisplay:10.34,2013-01-24 11:47:00,
2013-01-24 04:52:00,16.2,11.4,29.85,ENE,72,2.0,3.0,81,0.00,CLR,CLR,0.00,WeatherDisplay:10.34,2013-01-24 11:52:00,
2013-01-24 04:57:00,16.3,11.5,29.84,NE,53,0.0,1.0,81,0.00,CLR,CLR,0.00,WeatherDisplay:10.34,2013-01-24 11:57:00,
2013-01-24 05:02:00,16.2,11.4,29.84,WSW,248,2.0,2.0,81,0.00,CLR,CLR,0.00,WeatherDisplay:10.34,2013-01-24 12:02:00,
2013-01-24 05:07:00,16.2,11.4,29.85,WNW,290,0.0,1.0,81,0.00,CLR,CLR,0.00,WeatherDisplay:10.34,2013-01-24 12:07:00,
2013-01-24 05:12:00,16.2,11.4,29.85,WNW,290,1.0,2.0,81,0.00,CLR,CLR,0.00,WeatherDisplay:10.34,2013-01-24 12:12:00,
2013-01-24 05:17:00,16.2,11.4,29.85,WNW,290,0.0,1.0,81,0.00,CLR,CLR,0.00,WeatherDisplay:10.34,2013-01-24 12:17:00,
2013-01-24 05:22:00,16.2,11.4,29.84,West,269,4.0,5.0,81,0.00,CLR,CLR,0.00,WeatherDisplay:10.34,2013-01-24 12:22:00,
2013-01-24 05:27:00,16.4,11.9,29.84,West,259,0.0,0.0,82,0.00,CLR,CLR,0.00,WeatherDisplay:10.34,2013-01-24 12:27:00,
2013-01-24 05:32:00,16.7,12.2,29.84,NNE,19,3.0,3.0,82,0.00,CLR,CLR,0.00,WeatherDisplay:10.34,2013-01-24 12:32:00,
2013-01-24 05:37:00,16.4,11.3,29.84,SSE,162,7.0,7.0,80,0.00,CLR,CLR,0.00,WeatherDisplay:10.34,2013-01-24 12:37:00,
2013-01-24 05:42:00,16.3,11.2,29.84,SW,219,4.0,4.0,80,0.00,CLR,CLR,0.00,WeatherDisplay:10.34,2013-01-24 12:42:00,
2013-01-24 05:47:00,16.5,11.7,29.84,SW,219,0.0,1.0,81,0.00,CLR,CLR,0.00,WeatherDisplay:10.34,2013-01-24 12:47:00,
2013-01-24 05:52:00,16.8,12.0,29.84,SW,219,3.0,3.0,81,0.00,CLR,CLR,0.00,WeatherDisplay:10.34,2013-01-24 12:52:00,
2013-01-24 05:57:00,17.2,12.4,29.84,NNE,28,3.0,8.0,81,0.00,CLR,CLR,0.00,WeatherDisplay:10.34,2013-01-24 12:57:00,
2013-01-24 06:02:00,17.8,13.0,29.84,SSE,167,6.0,8.0,81,0.00,CLR,CLR,0.00,WeatherDisplay:10.34,2013-01-24 13:02:00,
2013-01-24 06:07:00,18.0,12.9,29.84,SSE,161,10.0,10.0,80,0.00,CLR,CLR,0.00,WeatherDisplay:10.34,2013-01-24 13:07:00,
2013-01-24 06:12:00,18.7,13.8,29.85,NE,48,4.0,5.0,81,0.00,CLR,CLR,0.00,WeatherDisplay:10.34,2013-01-24 13:12:00,
2013-01-24 06:17:00,20.1,15.2,29.85,North,350,7.0,10.0,81,0.00,CLR,CLR,0.00,WeatherDisplay:10.34,2013-01-24 13:17:00,
2013-01-24 06:22:00,21.6,16.4,29.83,NE,45,7.0,9.0,80,0.00,CLR,CLR,0.00,WeatherDisplay:10.34,2013-01-24 13:22:00,
2013-01-24 06:27:00,22.9,16.5,29.83,NE,56,14.0,14.0,76,0.00,CLR,CLR,0.00,WeatherDisplay:10.34,2013-01-24 13:27:00,
2013-01-24 06:32:00,23.9,16.8,29.83,ESE,121,12.0,12.0,74,0.00,CLR,CLR,0.00,WeatherDisplay:10.34,2013-01-24 13:32:00,
2013-01-24 06:37:00,24.6,16.5,29.83,ESE,102,9.0,9.0,71,0.00,CLR,CLR,0.00,WeatherDisplay:10.34,2013-01-24 13:37:00,
2013-01-24 06:42:00,24.8,16.4,29.84,ENE,63,11.0,11.0,70,0.00,CLR,CLR,0.00,WeatherDisplay:10.34,2013-01-24 13:42:00,
2013-01-24 06:47:00,25.4,17.0,29.84,WNW,284,2.0,9.0,70,0.00,CLR,CLR,0.00,WeatherDisplay:10.34,2013-01-24 13:47:00,
2013-01-24 06:52:00,26.1,17.0,29.84,North,355,8.0,9.0,68,0.00,CLR,CLR,0.00,WeatherDisplay:10.34,2013-01-24 13:52:00,
2013-01-24 06:57:00,30.4,18.2,29.84,South,175,1.0,8.0,60,0.00,CLR,CLR,0.00,WeatherDisplay:10.34,2013-01-24 13:57:00,
2013-01-24 07:02:00,28.5,16.0,29.84,SSE,153,3.0,9.0,59,0.00,OVC,OVC,0.00,WeatherDisplay:10.34,2013-01-24 14:02:00,
2013-01-24 07:07:00,26.7,15.4,29.84,SW,227,19.0,26.0,62,0.00,OVC,OVC,0.00,WeatherDisplay:10.34,2013-01-24 14:07:00,
2013-01-24 07:12:00,32.0,18.1,29.84,SSE,155,16.0,16.0,56,0.00,OVC,OVC,0.00,WeatherDisplay:10.34,2013-01-24 14:12:00,
2013-01-24 07:17:00,37.1,24.1,29.82,SSW,211,28.0,28.0,59,0.00,OVC,OVC,0.00,WeatherDisplay:10.34,2013-01-24 14:17:00,
2013-01-24 07:22:00,32.4,18.0,29.82,SE,141,10.0,12.0,55,0.00,OVC,OVC,0.00,WeatherDisplay:10.34,2013-01-24 14:22:00,
2013-01-24 07:27:00,33.5,23.0,29.82,South,170,21.0,22.0,65,0.00,OVC,OVC,0.00,WeatherDisplay:10.34,2013-01-24 14:27:00,
2013-01-24 07:32:00,35.1,17.4,29.84,NNE,20,6.0,8.0,48,0.00,OVC,OVC,0.00,WeatherDisplay:10.34,2013-01-24 14:32:00,
2013-01-24 07:37:00,31.6,16.4,29.83,ENE,71,12.0,13.0,53,0.00,OVC,OVC,0.00,WeatherDisplay:10.34,2013-01-24 14:37:00,
2013-01-24 07:42:00,29.8,17.6,29.83,SW,220,6.0,9.0,60,0.00,OVC,OVC,0.00,WeatherDisplay:10.34,2013-01-24 14:42:00,
2013-01-24 07:47:00,31.7,18.6,29.83,NE,42,5.0,8.0,58,0.00,OVC,OVC,0.00,WeatherDisplay:10.34,2013-01-24 14:47:00,
2013-01-24 07:52:00,31.5,18.0,29.84,East,81,6.0,8.0,57,0.00,CLR,CLR,0.00,WeatherDisplay:10.34,2013-01-24 14:52:00,
2013-01-24 07:57:00,31.2,18.1,29.84,SSW,192,4.0,8.0,58,0.00,FEW,FEW,0.00,WeatherDisplay:10.34,2013-01-24 14:57:00,
2013-01-24 08:02:00,31.0,18.3,29.84,West,276,1.0,2.0,59,0.00,SCT,SCT,0.00,WeatherDisplay:10.34,2013-01-24 15:02:00,
2013-01-24 08:07:00,31.0,18.7,29.84,South,180,0.0,1.0,60,0.00,BKN,BKN,0.00,WeatherDisplay:10.34,2013-01-24 15:07:00,
2013-01-24 08:12:00,31.1,18.4,29.84,SSW,205,10.0,10.0,59,0.00,BKN,BKN,0.00,WeatherDisplay:10.34,2013-01-24 15:12:00,
2013-01-24 08:17:00,31.4,19.1,29.84,SW,232,5.0,7.0,60,0.00,SCT,SCT,0.00,WeatherDisplay:10.34,2013-01-24 15:17:00,
2013-01-24 08:22:00,32.6,21.4,29.85,WSW,240,18.0,24.0,63,0.00,CLR,CLR,0.00,WeatherDisplay:10.34,2013-01-24 15:22:00,
2013-01-24 08:27:00,37.7,25.1,29.85,SW,219,18.0,21.0,60,0.00,CLR,CLR,0.00,WeatherDisplay:10.34,2013-01-24 15:27:00,
2013-01-24 08:32:00,41.6,26.2,29.85,SW,215,21.0,22.0,54,0.00,CLR,CLR,0.00,WeatherDisplay:10.34,2013-01-24 15:32:00,
2013-01-24 08:37:00,42.6,25.2,29.85,SW,229,20.0,20.0,50,0.00,CLR,CLR,0.00,WeatherDisplay:10.34,2013-01-24 15:37:00,
2013-01-24 08:42:00,43.2,25.8,29.84,SSW,207,18.0,21.0,50,0.00,CLR,CLR,0.00,WeatherDisplay:10.34,2013-01-24 15:42:00,
2013-01-24 08:47:00,44.2,26.2,29.84,SW,225,23.0,29.0,49,0.00,CLR,CLR,0.00,WeatherDisplay:10.34,2013-01-24 15:47:00,
2013-01-24 08:52:00,45.7,26.6,29.84,SW,231,27.0,29.0,47,0.00,CLR,CLR,0.00,WeatherDisplay:10.34,2013-01-24 15:52:00,
2013-01-24 08:57:00,46.3,26.6,29.84,WSW,240,19.0,21.0,46,0.00,CLR,CLR,0.00,WeatherDisplay:10.34,2013-01-24 15:57:00,
2013-01-24 09:02:00,46.8,26.6,29.84,WSW,239,25.0,29.0,45,0.00,CLR,CLR,0.00,WeatherDisplay:10.34,2013-01-24 16:02:00,
2013-01-24 09:07:00,47.3,26.5,29.85,WSW,242,27.0,31.0,44,0.00,CLR,CLR,0.00,WeatherDisplay:10.34,2013-01-24 16:07:00,
2013-01-24 09:12:00,47.5,26.6,29.85,SSW,212,29.0,31.0,44,0.00,CLR,CLR,0.00,WeatherDisplay:10.34,2013-01-24 16:12:00,
2013-01-24 09:17:00,47.6,26.2,29.85,WSW,239,23.0,32.0,43,0.00,CLR,CLR,0.00,WeatherDisplay:10.34,2013-01-24 16:17:00,
2013-01-24 09:22:00,47.8,26.4,29.85,WSW,250,23.0,24.0,43,0.00,CLR,CLR,0.00,WeatherDisplay:10.34,2013-01-24 16:22:00,
2013-01-24 09:27:00,47.9,26.5,29.85,SW,231,34.0,37.0,43,0.00,CLR,CLR,0.00,WeatherDisplay:10.34,2013-01-24 16:27:00,
2013-01-24 09:32:00,48.3,26.2,29.85,SW,234,24.0,29.0,42,0.00,CLR,CLR,0.00,WeatherDisplay:10.34,2013-01-24 16:32:00,
2013-01-24 09:37:00,49.0,26.9,29.85,WSW,239,33.0,35.0,42,0.00,CLR,CLR,0.00,WeatherDisplay:10.34,2013-01-24 16:37:00,
2013-01-24 09:42:00,49.6,27.4,29.86,West,265,24.0,25.0,42,0.00,CLR,CLR,0.00,WeatherDisplay:10.34,2013-01-24 16:42:00,
2013-01-24 09:47:00,50.1,27.9,29.86,SW,225,35.0,38.0,42,0.00,CLR,CLR,0.00,WeatherDisplay:10.34,2013-01-24 16:47:00,
2013-01-24 09:52:00,50.1,27.3,29.86,SW,233,26.0,28.0,41,0.00,SCT,SCT,0.00,WeatherDisplay:10.34,2013-01-24 16:52:00,
2013-01-24 09:57:00,49.2,27.1,29.86,SW,229,14.0,17.0,42,0.00,SCT,SCT,0.00,WeatherDisplay:10.34,2013-01-24 16:57:00,
2013-01-24 10:02:00,48.7,27.7,29.86,SW,219,16.0,16.0,44,0.00,CLR,CLR,0.00,WeatherDisplay:10.34,2013-01-24 17:02:00,
2013-01-24 10:07:00,48.4,26.9,29.86,SSW,195,17.0,17.0,43,0.00,SCT,SCT,0.00,WeatherDisplay:10.34,2013-01-24 17:07:00,
2013-01-24 10:12:00,48.0,27.1,29.86,SSW,202,12.0,12.0,44,0.00,BKN,BKN,0.00,WeatherDisplay:10.34,2013-01-24 17:12:00,
2013-01-24 10:17:00,47.6,27.3,29.86,South,183,13.0,13.0,45,0.00,BKN,BKN,0.00,WeatherDisplay:10.34,2013-01-24 17:17:00,
2013-01-24 10:22:00,47.5,27.2,29.86,SW,215,14.0,15.0,45,0.00,BKN,BKN,0.00,WeatherDisplay:10.34,2013-01-24 17:22:00,
2013-01-24 10:27:00,47.4,27.1,29.86,SSW,203,9.0,10.0,45,0.00,BKN,BKN,0.00,WeatherDisplay:10.34,2013-01-24 17:27:00,
2013-01-24 10:32:00,47.3,27.5,29.86,South,186,18.0,20.0,46,0.00,BKN,BKN,0.00,WeatherDisplay:10.34,2013-01-24 17:32:00,
2013-01-24 10:38:00,47.4,27.1,29.86,South,183,16.0,16.0,45,0.00,SCT,SCT,0.00,WeatherDisplay:10.34,2013-01-24 17:38:00,
2013-01-24 10:43:00,47.7,27.9,29.85,SW,218,12.0,16.0,46,0.00,SCT,SCT,0.00,WeatherDisplay:10.34,2013-01-24 17:43:00,
2013-01-24 10:48:00,48.3,27.9,29.85,South,175,11.0,15.0,45,0.00,BKN,BKN,0.00,WeatherDisplay:10.34,2013-01-24 17:48:00,
2013-01-24 10:53:00,48.5,28.1,29.85,South,178,22.0,22.0,45,0.00,BKN,BKN,0.00,WeatherDisplay:10.34,2013-01-24 17:53:00,
2013-01-24 10:58:00,49.1,27.5,29.85,West,260,15.0,15.0,43,0.00,BKN,BKN,0.00,WeatherDisplay:10.34,2013-01-24 17:58:00,
2013-01-24 11:03:00,49.9,27.1,29.85,WSW,254,23.0,23.0,41,0.00,SCT,SCT,0.00,WeatherDisplay:10.34,2013-01-24 18:03:00,
2013-01-24 11:08:00,50.7,27.2,29.85,SW,229,41.0,41.0,40,0.00,SCT,SCT,0.00,WeatherDisplay:10.34,2013-01-24 18:08:00,
2013-01-24 11:13:00,51.0,27.5,29.85,SW,221,35.0,38.0,40,0.00,BKN,BKN,0.00,WeatherDisplay:10.34,2013-01-24 18:13:00,
2013-01-24 11:18:00,50.9,26.8,29.85,SSW,213,36.0,38.0,39,0.00,BKN,BKN,0.00,WeatherDisplay:10.34,2013-01-24 18:18:00,
2013-01-24 11:23:00,51.3,26.5,29.85,SSW,213,30.0,32.0,38,0.00,OVC,OVC,0.00,WeatherDisplay:10.34,2013-01-24 18:23:00,
2013-01-24 11:28:00,51.3,27.2,29.85,WSW,245,18.0,24.0,39,0.00,OVC,OVC,0.00,WeatherDisplay:10.34,2013-01-24 18:28:00,
2013-01-24 11:33:00,50.9,26.8,29.81,SW,220,37.0,46.0,39,0.00,OVC,OVC,0.00,WeatherDisplay:10.34,2013-01-24 18:33:00,
2013-01-24 11:38:00,50.4,27.6,29.81,SSW,205,32.0,35.0,41,0.00,OVC,OVC,0.00,WeatherDisplay:10.34,2013-01-24 18:38:00,
2013-01-24 11:43:00,50.3,26.9,29.81,SSW,205,45.0,45.0,40,0.00,OVC,OVC,0.00,WeatherDisplay:10.34,2013-01-24 18:43:00,
2013-01-24 11:48:00,50.3,26.9,29.81,SW,236,34.0,36.0,40,0.00,OVC,OVC,0.00,WeatherDisplay:10.34,2013-01-24 18:48:00,
2013-01-24 11:53:00,50.1,27.3,29.80,WSW,242,44.0,44.0,41,0.00,OVC,OVC,0.00,WeatherDisplay:10.34,2013-01-24 18:53:00,
2013-01-24 11:58:00,49.8,27.6,29.80,WSW,254,40.0,40.0,42,0.00,OVC,OVC,0.00,WeatherDisplay:10.34,2013-01-24 18:58:00,
2013-01-24 12:03:00,49.3,27.7,29.81,SSW,207,42.0,46.0,43,0.00,OVC,OVC,0.00,WeatherDisplay:10.34,2013-01-24 19:03:00,
2013-01-24 12:08:00,49.0,27.5,29.81,SW,226,38.0,44.0,43,0.00,OVC,OVC,0.00,WeatherDisplay:10.34,2013-01-24 19:08:00,
2013-01-24 12:13:00,48.7,27.7,29.82,SW,227,28.0,38.0,44,0.00,OVC,OVC,0.00,WeatherDisplay:10.34,2013-01-24 19:13:00,
2013-01-24 12:18:00,48.7,27.2,29.82,SW,217,36.0,40.0,43,0.00,OVC,OVC,0.00,WeatherDisplay:10.34,2013-01-24 19:18:00,
2013-01-24 12:23:00,49.1,27.5,29.83,WSW,248,29.0,32.0,43,0.00,OVC,OVC,0.00,WeatherDisplay:10.34,2013-01-24 19:23:00,
2013-01-24 12:28:00,49.2,27.6,29.83,SW,223,37.0,44.0,43,0.00,OVC,OVC,0.00,WeatherDisplay:10.34,2013-01-24 19:28:00,
2013-01-24 12:33:00,49.1,27.5,29.84,SW,236,26.0,28.0,43,0.00,OVC,OVC,0.00,WeatherDisplay:10.34,2013-01-24 19:33:00,
2013-01-24 12:38:00,49.2,27.6,29.84,WSW,237,34.0,35.0,43,0.00,OVC,OVC,0.00,WeatherDisplay:10.34,2013-01-24 19:38:00,
2013-01-24 12:43:00,49.4,27.8,29.85,WSW,238,34.0,34.0,43,0.00,OVC,OVC,0.00,WeatherDisplay:10.34,2013-01-24 19:43:00,
2013-01-24 12:48:00,49.5,27.9,29.85,SW,214,22.0,22.0,43,0.00,OVC,OVC,0.00,WeatherDisplay:10.34,2013-01-24 19:48:00,
2013-01-24 12:53:00,49.5,27.9,29.85,SW,225,21.0,23.0,43,0.00,OVC,OVC,0.00,WeatherDisplay:10.34,2013-01-24 19:53:00,
2013-01-24 12:58:00,49.5,27.9,29.85,SW,227,33.0,33.0,43,0.00,OVC,OVC,0.00,WeatherDisplay:10.34,2013-01-24 19:58:00,
2013-01-24 13:03:00,49.5,27.3,29.86,SSW,209,30.0,30.0,42,0.00,BKN,BKN,0.00,WeatherDisplay:10.34,2013-01-24 20:03:00,
2013-01-24 13:08:00,49.6,28.0,29.86,SW,233,30.0,37.0,43,0.00,BKN,BKN,0.00,WeatherDisplay:10.34,2013-01-24 20:08:00,
2013-01-24 13:13:00,49.6,27.4,29.86,SW,219,35.0,35.0,42,0.00,BKN,BKN,0.00,WeatherDisplay:10.34,2013-01-24 20:13:00,
2013-01-24 13:18:00,49.7,28.1,29.86,West,271,30.0,33.0,43,0.00,BKN,BKN,0.00,WeatherDisplay:10.34,2013-01-24 20:18:00,
2013-01-24 13:23:00,49.8,27.6,29.85,WSW,244,28.0,29.0,42,0.00,SCT,SCT,0.00,WeatherDisplay:10.34,2013-01-24 20:23:00,
2013-01-24 13:28:00,50.0,27.2,29.85,SW,229,31.0,31.0,41,0.00,SCT,SCT,0.00,WeatherDisplay:10.34,2013-01-24 20:28:00,
2013-01-24 13:33:00,50.4,28.1,29.85,SW,227,29.0,32.0,42,0.00,SCT,SCT,0.00,WeatherDisplay:10.34,2013-01-24 20:33:00,
2013-01-24 13:38:00,50.5,28.2,29.85,SW,234,28.0,28.0,42,0.00,FEW,FEW,0.00,WeatherDisplay:10.34,2013-01-24 20:38:00,
2013-01-24 13:43:00,51.0,27.5,29.86,WSW,253,24.0,25.0,40,0.00,CLR,CLR,0.00,WeatherDisplay:10.34,2013-01-24 20:43:00,
2013-01-24 13:48:00,51.7,27.5,29.86,WSW,257,24.0,24.0,39,0.00,CLR,CLR,0.00,WeatherDisplay:10.34,2013-01-24 20:48:00,
2013-01-24 13:53:00,51.9,27.7,29.86,SW,233,28.0,32.0,39,0.00,SCT,SCT,0.00,WeatherDisplay:10.34,2013-01-24 20:53:00,
2013-01-24 13:58:00,52.3,28.7,29.86,WSW,247,27.0,28.0,40,0.00,CLR,CLR,0.00,WeatherDisplay:10.34,2013-01-24 20:58:00,
2013-01-24 14:03:00,52.7,27.8,29.88,SW,227,17.0,21.0,38,0.00,CLR,CLR,0.00,WeatherDisplay:10.34,2013-01-24 21:03:00,
2013-01-24 14:08:00,52.9,28.0,29.88,WSW,256,13.0,16.0,38,0.00,CLR,CLR,0.00,WeatherDisplay:10.34,2013-01-24 21:08:00,
2013-01-24 14:13:00,53.2,26.9,29.88,West,264,17.0,26.0,36,0.00,CLR,CLR,0.00,WeatherDisplay:10.34,2013-01-24 21:13:00,
2013-01-24 14:18:00,53.6,27.3,29.88,WSW,248,26.0,33.0,36,0.00,CLR,CLR,0.00,WeatherDisplay:10.34,2013-01-24 21:18:00,
2013-01-24 14:23:00,53.6,27.3,29.89,West,262,12.0,20.0,36,0.00,CLR,CLR,0.00,WeatherDisplay:10.34,2013-01-24 21:23:00,
2013-01-24 14:28:00,53.6,28.6,29.89,NW,311,10.0,14.0,38,0.00,CLR,CLR,0.00,WeatherDisplay:10.34,2013-01-24 21:28:00,
2013-01-24 14:33:00,52.0,26.5,29.89,NW,314,12.0,12.0,37,0.00,CLR,CLR,0.00,WeatherDisplay:10.34,2013-01-24 21:33:00,
2013-01-24 14:38:00,51.5,26.7,29.89,WSW,244,7.0,7.0,38,0.00,CLR,CLR,0.00,WeatherDisplay:10.34,2013-01-24 21:38:00,
2013-01-24 14:43:00,51.9,26.4,29.89,WNW,290,11.0,11.0,37,0.00,CLR,CLR,0.00,WeatherDisplay:10.34,2013-01-24 21:43:00,
2013-01-24 14:48:00,52.3,26.1,29.89,West,279,17.0,17.0,36,0.00,CLR,CLR,0.00,WeatherDisplay:10.34,2013-01-24 21:48:00,
2013-01-24 14:53:00,52.6,25.7,29.90,WSW,246,11.0,13.0,35,0.00,CLR,CLR,0.00,WeatherDisplay:10.34,2013-01-24 21:53:00,
2013-01-24 14:58:00,52.8,26.6,29.90,WSW,242,6.0,8.0,36,0.00,CLR,CLR,0.00,WeatherDisplay:10.34,2013-01-24 21:58:00,
2013-01-24 15:03:00,52.2,27.3,29.90,NNW,340,13.0,14.0,38,0.00,CLR,CLR,0.00,WeatherDisplay:10.34,2013-01-24 22:03:00,
2013-01-24 15:08:00,49.7,27.5,29.90,NNW,333,9.0,9.0,42,0.00,CLR,CLR,0.00,WeatherDisplay:10.34,2013-01-24 22:08:00,
2013-01-24 15:13:00,49.1,27.5,29.92,NNW,348,12.0,13.0,43,0.00,CLR,CLR,0.00,WeatherDisplay:10.34,2013-01-24 22:13:00,
2013-01-24 15:18:00,48.7,27.2,29.92,NNW,334,7.0,7.0,43,0.00,OVC,OVC,0.00,WeatherDisplay:10.34,2013-01-24 22:18:00,
2013-01-24 15:23:00,48.5,27.6,29.92,NNW,330,6.0,7.0,44,0.00,CLR,CLR,0.00,WeatherDisplay:10.34,2013-01-24 22:23:00,
2013-01-24 15:28:00,48.7,27.2,29.92,NW,322,8.0,8.0,43,0.00,OVC,OVC,0.00,WeatherDisplay:10.34,2013-01-24 22:28:00,
2013-01-24 15:33:00,48.6,26.5,29.91,NNW,344,6.0,9.0,42,0.00,SCT,SCT,0.00,WeatherDisplay:10.34,2013-01-24 22:33:00,
2013-01-24 15:38:00,48.7,26.0,29.91,WNW,291,4.0,5.0,41,0.00,BKN,BKN,0.00,WeatherDisplay:10.34,2013-01-24 22:38:00,
2013-01-24 15:43:00,49.1,27.0,29.91,SW,236,8.0,9.0,42,0.00,CLR,CLR,0.00,WeatherDisplay:10.34,2013-01-24 22:43:00,
2013-01-24 15:48:00,49.5,26.1,29.91,West,265,7.0,9.0,40,0.00,CLR,CLR,0.00,WeatherDisplay:10.34,2013-01-24 22:48:00,
2013-01-24 15:53:00,50.1,26.1,29.91,WSW,257,6.0,9.0,39,0.00,CLR,CLR,0.00,WeatherDisplay:10.34,2013-01-24 22:53:00,
2013-01-24 15:58:00,50.4,26.3,29.91,WSW,240,6.0,7.0,39,0.00,CLR,CLR,0.00,WeatherDisplay:10.34,2013-01-24 22:58:00,
2013-01-24 16:04:00,50.8,25.4,29.92,WSW,246,3.0,3.0,37,0.00,CLR,CLR,0.00,WeatherDisplay:10.34,2013-01-24 23:04:00,
2013-01-24 16:09:00,50.9,25.5,29.92,West,273,8.0,9.0,37,0.00,CLR,CLR,0.00,WeatherDisplay:10.34,2013-01-24 23:09:00,
2013-01-24 16:14:00,50.9,25.5,29.94,WSW,254,19.0,20.0,37,0.00,CLR,CLR,0.00,WeatherDisplay:10.34,2013-01-24 23:14:00,
2013-01-24 16:19:00,50.6,25.3,29.94,WSW,238,21.0,22.0,37,0.00,CLR,CLR,0.00,WeatherDisplay:10.34,2013-01-24 23:19:00,
2013-01-24 16:24:00,50.3,25.0,29.93,West,268,20.0,24.0,37,0.00,CLR,CLR,0.00,WeatherDisplay:10.34,2013-01-24 23:24:00,
2013-01-24 16:29:00,50.0,25.4,29.93,WSW,250,22.0,23.0,38,0.00,CLR,CLR,0.00,WeatherDisplay:10.34,2013-01-24 23:29:00,
2013-01-24 16:34:00,49.6,24.4,29.95,SW,234,19.0,20.0,37,0.00,CLR,CLR,0.00,WeatherDisplay:10.34,2013-01-24 23:34:00,
2013-01-24 16:39:00,49.3,24.7,29.95,WSW,247,19.0,21.0,38,0.00,CLR,CLR,0.00,WeatherDisplay:10.34,2013-01-24 23:39:00,
2013-01-24 16:44:00,48.9,25.0,29.95,WSW,255,16.0,17.0,39,0.00,CLR,CLR,0.00,WeatherDisplay:10.34,2013-01-24 23:44:00,
2013-01-24 16:49:00,48.6,25.3,29.95,WNW,291,12.0,12.0,40,0.00,CLR,CLR,0.00,WeatherDisplay:10.34,2013-01-24 23:49:00,
2013-01-24 16:54:00,48.3,25.7,29.95,SW,234,20.0,20.0,41,0.00,CLR,CLR,0.00,WeatherDisplay:10.34,2013-01-24 23:54:00,
2013-01-24 16:59:00,48.0,25.4,29.94,WSW,246,23.0,24.0,41,0.00,CLR,CLR,0.00,WeatherDisplay:10.34,2013-01-24 23:59:00,
2013-01-24 17:04:00,47.8,25.2,29.94,WSW,254,11.0,20.0,41,0.00,OVC,OVC,0.00,WeatherDisplay:10.34,2013-01-25 00:04:00,
2013-01-24 17:09:00,47.5,24.9,29.94,SW,230,17.0,21.0,41,0.00,OVC,OVC,0.00,WeatherDisplay:10.34,2013-01-25 00:09:00,
2013-01-24 17:14:00,46.9,25.0,29.95,SW,229,17.0,17.0,42,0.00,OVC,OVC,0.00,WeatherDisplay:10.34,2013-01-25 00:14:00,
2013-01-24 17:19:00,46.6,24.7,29.95,SW,232,16.0,24.0,42,0.00,OVC,OVC,0.00,WeatherDisplay:10.34,2013-01-25 00:19:00,
2013-01-24 17:24:00,46.5,25.2,29.96,WSW,253,17.0,17.0,43,0.00,OVC,OVC,0.00,WeatherDisplay:10.34,2013-01-25 00:24:00,
2013-01-24 17:29:00,46.3,25.0,29.96,WSW,248,18.0,25.0,43,0.00,OVC,OVC,0.00,WeatherDisplay:10.34,2013-01-25 00:29:00,
2013-01-24 17:34:00,46.3,25.0,29.97,SW,226,13.0,17.0,43,0.00,OVC,OVC,0.00,WeatherDisplay:10.34,2013-01-25 00:34:00,
2013-01-24 17:39:00,46.3,25.0,29.97,SW,226,11.0,11.0,43,0.00,OVC,OVC,0.00,WeatherDisplay:10.34,2013-01-25 00:39:00,
2013-01-24 17:44:00,46.1,24.8,29.97,West,265,20.0,20.0,43,0.00,OVC,OVC,0.00,WeatherDisplay:10.34,2013-01-25 00:44:00,
2013-01-24 17:49:00,45.8,24.5,29.97,WSW,240,14.0,14.0,43,0.00,OVC,OVC,0.00,WeatherDisplay:10.34,2013-01-25 00:49:00,
2013-01-24 17:54:00,45.5,24.8,29.97,SW,236,21.0,24.0,44,0.00,OVC,OVC,0.00,WeatherDisplay:10.34,2013-01-25 00:54:00,
2013-01-24 17:59:00,45.2,24.6,29.97,WSW,243,17.0,17.0,44,0.00,OVC,OVC,0.00,WeatherDisplay:10.34,2013-01-25 00:59:00,
2013-01-24 18:04:00,45.0,24.9,29.97,SW,235,18.0,18.0,45,0.00,CLR,CLR,0.00,WeatherDisplay:10.34,2013-01-25 01:04:00,
2013-01-24 18:09:00,45.0,24.9,29.97,WSW,255,17.0,22.0,45,0.00,CLR,CLR,0.00,WeatherDisplay:10.34,2013-01-25 01:09:00,
2013-01-24 18:14:00,44.9,24.8,29.97,WSW,237,14.0,22.0,45,0.00,CLR,CLR,0.00,WeatherDisplay:10.34,2013-01-25 01:14:00,
2013-01-24 18:19:00,44.6,24.5,29.97,SW,236,16.0,17.0,45,0.00,CLR,CLR,0.00,WeatherDisplay:10.34,2013-01-25 01:19:00,
2013-01-24 18:24:00,44.1,24.6,29.97,WSW,254,18.0,21.0,46,0.00,CLR,CLR,0.00,WeatherDisplay:10.34,2013-01-25 01:24:00,
2013-01-24 18:29:00,43.9,24.4,29.97,SW,232,18.0,20.0,46,0.00,CLR,CLR,0.00,WeatherDisplay:10.34,2013-01-25 01:29:00,
2013-01-24 18:34:00,43.8,24.3,29.98,SW,219,18.0,18.0,46,0.00,CLR,CLR,0.00,WeatherDisplay:10.34,2013-01-25 01:34:00,
2013-01-24 18:39:00,43.6,24.2,29.98,SW,217,14.0,21.0,46,0.00,CLR,CLR,0.00,WeatherDisplay:10.34,2013-01-25 01:39:00,
2013-01-24 18:44:00,43.6,24.2,29.98,SW,227,19.0,20.0,46,0.00,CLR,CLR,0.00,WeatherDisplay:10.34,2013-01-25 01:44:00,
2013-01-24 18:49:00,43.3,24.4,29.98,SW,214,18.0,18.0,47,0.00,CLR,CLR,0.00,WeatherDisplay:10.34,2013-01-25 01:49:00,
2013-01-24 18:54:00,42.6,23.8,29.98,SSW,211,16.0,16.0,47,0.00,CLR,CLR,0.00,WeatherDisplay:10.34,2013-01-25 01:54:00,
2013-01-24 18:59:00,42.3,23.5,29.98,SSW,211,13.0,13.0,47,0.00,CLR,CLR,0.00,WeatherDisplay:10.34,2013-01-25 01:59:00,
2013-01-24 19:04:00,42.0,23.7,29.98,SW,234,14.0,14.0,48,0.00,CLR,CLR,0.00,WeatherDisplay:10.34,2013-01-25 02:04:00,
2013-01-24 19:09:00,42.0,23.2,29.98,WSW,240,16.0,17.0,47,0.00,CLR,CLR,0.00,WeatherDisplay:10.34,2013-01-25 02:09:00,
2013-01-24 19:14:00,42.3,23.5,29.99,SW,216,20.0,20.0,47,0.00,CLR,CLR,0.00,WeatherDisplay:10.34,2013-01-25 02:14:00,
2013-01-24 19:19:00,43.0,23.6,29.99,WSW,240,24.0,24.0,46,0.00,CLR,CLR,0.00,WeatherDisplay:10.34,2013-01-25 02:19:00,
2013-01-24 19:24:00,43.4,23.4,29.99,SW,225,22.0,23.0,45,0.00,CLR,CLR,0.00,WeatherDisplay:10.34,2013-01-25 02:24:00,
2013-01-24 19:29:00,43.2,23.3,29.99,SW,222,17.0,17.0,45,0.00,CLR,CLR,0.00,WeatherDisplay:10.34,2013-01-25 02:29:00,
2013-01-24 19:34:00,43.1,23.2,29.99,SW,236,26.0,26.0,45,0.00,CLR,CLR,0.00,WeatherDisplay:10.34,2013-01-25 02:34:00,
2013-01-24 19:39:00,43.1,23.7,29.99,SW,236,16.0,20.0,46,0.00,CLR,CLR,0.00,WeatherDisplay:10.34,2013-01-25 02:39:00,
2013-01-24 19:44:00,43.0,23.1,29.99,WSW,244,16.0,17.0,45,0.00,CLR,CLR,0.00,WeatherDisplay:10.34,2013-01-25 02:44:00,
2013-01-24 19:49:00,42.8,22.9,29.99,SW,221,16.0,16.0,45,0.00,CLR,CLR,0.00,WeatherDisplay:10.34,2013-01-25 02:49:00,
2013-01-24 19:54:00,42.6,23.2,29.99,WSW,241,16.0,16.0,46,0.00,CLR,CLR,0.00,WeatherDisplay:10.34,2013-01-25 02:54:00,
2013-01-24 19:59:00,42.4,24.6,29.99,SW,233,13.0,13.0,49,0.00,CLR,CLR,0.00,WeatherDisplay:10.34,2013-01-25 02:59:00,
2013-01-24 20:04:00,42.3,23.0,29.99,WSW,249,19.0,21.0,46,0.00,CLR,CLR,0.00,WeatherDisplay:10.34,2013-01-25 03:04:00,
2013-01-24 20:09:00,42.4,23.1,29.99,WSW,242,17.0,17.0,46,0.00,CLR,CLR,0.00,WeatherDisplay:10.34,2013-01-25 03:09:00,
2013-01-24 20:14:00,42.4,23.1,29.99,SW,219,17.0,21.0,46,0.00,CLR,CLR,0.00,WeatherDisplay:10.34,2013-01-25 03:14:00,
2013-01-24 20:19:00,42.3,23.5,29.99,SW,227,15.0,20.0,47,0.00,CLR,CLR,0.00,WeatherDisplay:10.34,2013-01-25 03:19:00,
2013-01-24 20:24:00,42.4,23.1,29.99,WSW,238,14.0,17.0,46,0.00,CLR,CLR,0.00,WeatherDisplay:10.34,2013-01-25 03:24:00,
2013-01-24 20:29:00,42.3,23.0,29.99,SW,234,16.0,16.0,46,0.00,CLR,CLR,0.00,WeatherDisplay:10.34,2013-01-25 03:29:00,
2013-01-24 20:34:00,42.3,23.5,30.00,SW,223,17.0,17.0,47,0.00,CLR,CLR,0.00,WeatherDisplay:10.34,2013-01-25 03:34:00,
2013-01-24 20:39:00,42.2,23.4,30.00,SW,219,17.0,17.0,47,0.00,CLR,CLR,0.00,WeatherDisplay:10.34,2013-01-25 03:39:00,
2013-01-24 20:44:00,42.1,23.3,30.00,SW,218,20.0,21.0,47,0.00,CLR,CLR,0.00,WeatherDisplay:10.34,2013-01-25 03:44:00,
2013-01-24 20:49:00,41.5,22.7,30.00,SSW,192,15.0,15.0,47,0.00,CLR,CLR,0.00,WeatherDisplay:10.34,2013-01-25 03:49:00,
2013-01-24 20:54:00,40.3,22.6,30.00,SSW,200,18.0,18.0,49,0.00,CLR,CLR,0.00,WeatherDisplay:10.34,2013-01-25 03:54:00,
2013-01-24 20:59:00,40.3,22.6,30.00,SSW,201,21.0,21.0,49,0.00,CLR,CLR,0.00,WeatherDisplay:10.34,2013-01-25 03:59:00,
2013-01-24 21:04:00,40.6,22.4,30.00,SSW,198,19.0,19.0,48,0.00,CLR,CLR,0.00,WeatherDisplay:10.34,2013-01-25 04:04:00,
2013-01-24 21:09:00,41.1,22.4,30.01,SSW,205,25.0,25.0,47,0.00,CLR,CLR,0.00,WeatherDisplay:10.34,2013-01-25 04:09:00,
2013-01-24 21:14:00,42.0,22.7,30.01,SSW,200,20.0,20.0,46,0.00,CLR,CLR,0.00,WeatherDisplay:10.34,2013-01-25 04:14:00,
2013-01-24 21:19:00,42.4,22.5,30.01,SSW,211,20.0,20.0,45,0.00,CLR,CLR,0.00,WeatherDisplay:10.34,2013-01-25 04:19:00,
2013-01-24 21:24:00,42.8,22.4,30.01,SW,218,20.0,20.0,44,0.00,CLR,CLR,0.00,WeatherDisplay:10.34,2013-01-25 04:24:00,
2013-01-24 21:29:00,42.9,22.5,30.01,SW,228,22.0,22.0,44,0.00,CLR,CLR,0.00,WeatherDisplay:10.34,2013-01-25 04:29:00,
2013-01-24 21:34:00,42.9,22.5,30.01,SSW,213,19.0,19.0,44,0.00,CLR,CLR,0.00,WeatherDisplay:10.34,2013-01-25 04:34:00,
2013-01-24 21:39:00,43.0,22.0,30.01,SW,230,24.0,26.0,43,0.00,CLR,CLR,0.00,WeatherDisplay:10.34,2013-01-25 04:39:00,
2013-01-24 21:44:00,43.0,22.5,30.01,SSW,211,19.0,21.0,44,0.00,CLR,CLR,0.00,WeatherDisplay:10.34,2013-01-25 04:44:00,
2013-01-24 21:49:00,43.0,22.0,30.01,SW,219,22.0,24.0,43,0.00,CLR,CLR,0.00,WeatherDisplay:10.34,2013-01-25 04:49:00,
2013-01-24 21:54:00,42.7,22.3,30.01,SW,221,21.0,22.0,44,0.00,CLR,CLR,0.00,WeatherDisplay:10.34,2013-01-25 04:54:00,
2013-01-24 21:59:00,42.5,22.1,30.01,WSW,250,22.0,22.0,44,0.00,CLR,CLR,0.00,WeatherDisplay:10.34,2013-01-25 04:59:00,
2013-01-24 22:01:00,42.4,22.5,30.01,SW,214,19.0,20.0,45,0.00,CLR,CLR,0.00,WeatherDisplay:10.34,2013-01-25 05:01:00,
2013-01-24 22:02:00,42.4,22.5,30.01,WSW,240,16.0,23.0,45,0.00,CLR,CLR,0.00,WeatherDisplay:10.34,2013-01-25 05:02:00,
2013-01-24 22:04:00,42.3,22.4,30.01,SW,223,16.0,17.0,45,0.00,CLR,CLR,0.00,WeatherDisplay:10.34,2013-01-25 05:04:00,
2013-01-24 22:09:00,42.3,22.4,30.01,SSW,209,22.0,23.0,45,0.00,CLR,CLR,0.00,WeatherDisplay:10.34,2013-01-25 05:09:00,
2013-01-24 22:14:00,42.3,22.4,30.00,WSW,248,17.0,23.0,45,0.00,CLR,CLR,0.00,WeatherDisplay:10.34,2013-01-25 05:14:00,
2013-01-24 22:19:00,42.6,22.2,30.00,SW,215,22.0,22.0,44,0.00,CLR,CLR,0.00,WeatherDisplay:10.34,2013-01-25 05:19:00,
2013-01-24 22:24:00,43.0,22.5,30.00,SSW,196,21.0,29.0,44,0.00,CLR,CLR,0.00,WeatherDisplay:10.34,2013-01-25 05:24:00,
2013-01-24 22:29:00,43.6,22.5,30.00,SW,223,27.0,28.0,43,0.00,CLR,CLR,0.00,WeatherDisplay:10.34,2013-01-25 05:29:00,
2013-01-24 22:34:00,44.0,22.9,30.00,SSW,205,20.0,24.0,43,0.00,CLR,CLR,0.00,WeatherDisplay:10.34,2013-01-25 05:34:00,
2013-01-24 22:39:00,43.9,22.8,30.00,WSW,238,26.0,32.0,43,0.00,CLR,CLR,0.00,WeatherDisplay:10.34,2013-01-25 05:39:00,
2013-01-24 22:44:00,43.8,22.7,30.00,SW,229,23.0,24.0,43,0.00,CLR,CLR,0.00,WeatherDisplay:10.34,2013-01-25 05:44:00,
2013-01-24 22:49:00,43.5,23.0,30.00,SW,215,22.0,25.0,44,0.00,CLR,CLR,0.00,WeatherDisplay:10.34,2013-01-25 05:49:00,
2013-01-24 22:54:00,43.5,23.0,30.00,WSW,240,24.0,32.0,44,0.00,CLR,CLR,0.00,WeatherDisplay:10.34,2013-01-25 05:54:00,
2013-01-24 22:59:00,43.5,23.0,30.00,SW,232,33.0,33.0,44,0.00,CLR,CLR,0.00,WeatherDisplay:10.34,2013-01-25 05:59:00,
2013-01-24 23:04:00,43.6,23.1,30.00,WSW,241,29.0,29.0,44,0.00,CLR,CLR,0.00,WeatherDisplay:10.34,2013-01-25 06:04:00,
2013-01-24 23:09:00,43.6,23.1,30.00,SW,227,22.0,23.0,44,0.00,CLR,CLR,0.00,WeatherDisplay:10.34,2013-01-25 06:09:00,
2013-01-24 23:14:00,43.3,22.8,30.01,SW,221,24.0,25.0,44,0.00,CLR,CLR,0.00,WeatherDisplay:10.34,2013-01-25 06:14:00,
2013-01-24 23:19:00,43.1,23.2,30.01,SW,232,25.0,25.0,45,0.00,CLR,CLR,0.00,WeatherDisplay:10.34,2013-01-25 06:19:00,
2013-01-24 23:24:00,43.1,23.2,30.01,WSW,242,19.0,19.0,45,0.00,CLR,CLR,0.00,WeatherDisplay:10.34,2013-01-25 06:24:00,
2013-01-24 23:29:00,42.9,23.0,30.01,SW,226,20.0,21.0,45,0.00,CLR,CLR,0.00,WeatherDisplay:10.34,2013-01-25 06:29:00,
2013-01-24 23:34:00,42.6,22.7,30.01,SW,216,18.0,18.0,45,0.00,CLR,CLR,0.00,WeatherDisplay:10.34,2013-01-25 06:34:00,
2013-01-24 23:39:00,42.5,23.2,30.01,SSW,211,20.0,24.0,46,0.00,CLR,CLR,0.00,WeatherDisplay:10.34,2013-01-25 06:39:00,
2013-01-24 23:45:00,42.5,23.2,30.01,SW,228,23.0,23.0,46,0.00,CLR,CLR,0.00,WeatherDisplay:10.34,2013-01-25 06:45:00,
2013-01-24 23:50:00,42.5,23.2,30.01,WSW,241,21.0,24.0,46,0.00,CLR,CLR,0.00,WeatherDisplay:10.34,2013-01-25 06:50:00,
2013-01-24 23:55:00,42.2,22.9,30.01,WSW,248,15.0,15.0,46,0.00,CLR,CLR,0.00,WeatherDisplay:10.34,2013-01-25 06:55:00,